TimePST,TemperatureF,Dew PointF,Humidity,Sea Level PressureIn,VisibilityMPH,Wind Direction,Wind SpeedMPH,Gust SpeedMPH,PrecipitationIn,Events,Conditions,WindDirDegrees,DateUTC
12:00 AM,41.7,34.7,76,29.81,-9999.0,South,20.7,-,N/A,,Unknown,180,2013-02-20 08:00:00
1:00 AM,41.9,35.1,77,29.78,-9999.0,South,20.7,-,N/A,,Unknown,180,2013-02-20 09:00:00
2:00 AM,41.9,36.5,81,29.75,-9999.0,South,23.0,-,N/A,,Unknown,170,2013-02-20 10:00:00
3:00 AM,41.4,37.6,86,29.74,-9999.0,South,21.9,-,N/A,,Unknown,180,2013-02-20 11:00:00
4:00 AM,41,37,82,29.69,,South,25.3,,,,,170,2013-02-20 12:00:00
4:00 AM,41.4,37.4,86,29.69,-9999.0,South,25.3,-,N/A,,Unknown,170,2013-02-20 12:00:00
6:00 AM,40.3,37.2,89,29.72,-9999.0,South,19.6,-,N/A,,Unknown,180,2013-02-20 14:00:00
7:00 AM,39.4,36.3,89,29.73,-9999.0,West,5.8,-,N/A,,Unknown,280,2013-02-20 15:00:00
8:00 AM,40.1,35.8,85,29.77,-9999.0,WNW,10.4,-,N/A,,Unknown,290,2013-02-20 16:00:00
9:00 AM,41.2,34.5,77,29.79,-9999.0,WNW,8.1,-,N/A,,Unknown,300,2013-02-20 17:00:00
10:00 AM,43,34,62,29.81,,WNW,6.9,,,,,290,2013-02-20 18:00:00
10:00 AM,42.8,34.3,72,29.81,-9999.0,WNW,6.9,-,N/A,,Unknown,290,2013-02-20 18:00:00
12:00 PM,44.1,34.5,69,29.84,-9999.0,West,6.9,-,N/A,,Unknown,280,2013-02-20 20:00:00
1:00 PM,44.1,32.9,65,29.83,-9999.0,WSW,11.5,-,N/A,,Unknown,250,2013-02-20 21:00:00
2:00 PM,43.9,31.6,62,29.81,-9999.0,WSW,8.1,-,N/A,,Unknown,250,2013-02-20 22:00:00
3:00 PM,42.4,35.1,75,29.80,-9999.0,West,4.6,-,N/A,,Unknown,280,2013-02-20 23:00:00
4:00 PM,43,32,54,29.77,,SW,17.3,,,,,220,2013-02-21 00:00:00
4:00 PM,43.3,32.0,64,29.77,-9999.0,SW,17.3,-,N/A,,Unknown,220,2013-02-21 00:00:00
5:00 PM,42.6,33.1,69,29.74,-9999.0,South,13.8,-,N/A,,Unknown,190,2013-02-21 01:00:00
6:00 PM,40.1,34.7,81,29.70,-9999.0,South,18.4,-,N/A,,Unknown,180,2013-02-21 02:00:00
8:00 PM,37.0,34.7,91,29.60,-9999.0,South,25.3,-,N/A,,Unknown,180,2013-02-21 04:00:00
9:00 PM,37.8,36.0,93,29.55,-9999.0,South,29.9,-,N/A,,Unknown,180,2013-02-21 05:00:00
10:00 PM,39,37,92,29.50,,South,27.6,,,,,170,2013-02-21 06:00:00
10:00 PM,39.0,37.4,94,29.50,-9999.0,South,27.6,-,N/A,,Unknown,170,2013-02-21 06:00:00
11:00 PM,39.4,37.4,93,29.45,-9999.0,South,23.0,-,N/A,,Unknown,170,2013-02-21 07:00:00